Tracking 28790 objects as of 19-Apr-2024
HD Live streaming from Space Station
objects crossing your sky now

FREGAT DEB

Track FREGAT DEB now!
10-day predictions


NORAD ID: 46006
Int'l Code: 2011-037HH
Perigee: 341.9 km
Apogee: 3,274.4 km
Inclination: 51.4 °
Period: 122.7 minutes
Semi major axis: 8179 km
RCS: Unknown
Launch date: July 18, 2011
Source: Commonwealth of Independent States (former USSR) (CIS)
Launch site: TYURATAM MISSILE AND SPACE COMPLEX (TTMTR)

Note: This is SATELLITE DEBRIS
Your satellite tracking list
Your tracking list is empty




NASA's NSSDC Master Catalog

Two Line Element Set (TLE):
1 46006U 11037HH  24109.35757157  .00029820  00000-0  20056-2 0  9990
2 46006  51.4148 221.4589 1792643   9.4643 353.5712 11.73654447156134
Source of the keplerian elements: AFSPC